Location: Altleiningen
(49.5078°N, 8.0741°E)
Time: 01:24:57
(UTC+00:00)

Cosmos 2074 Rocket - Pass Details

Date: 03 March 2021
Orbit: 967 x 987 km, 82.9° (Epoch: 16 April)

Event Time Altitude Azimuth Distance (km) Brightness Sun altitude
Rises 17:34:11 0° 175° (S) 3,676 7.0 -4.1°
Reaches altitude 10° 17:36:43 10° 172° (S) 2,730 6.3 -4.5°
Maximum altitude 17:42:51 62° 93° (E) 1,099 4.1 -5.5°
Drops below altitude 10° 17:49:01 10° 15° (NNE) 2,735 6.2 -6.5°
Sets 17:51:33 0° 12° (NNE) 3,684 6.9 -6.9°
